FW0960 Weather Reports


Display with metric or nautical units.
time (UTC)temp
F
wind
direction
speed
MPH
gust
MPH
rain 1hr
in
rain 24hr
in
rain mn
in
humidity
%
barometer
mb
20210412175133 51 245 1.0 4.0 0.00 0.00 0.00 91 1007.2
20210412174318 50 281 1.0 4.0 0.00 0.00 0.00 90 1007.2
20210412173822 50 338 1.0 4.0 0.00 0.00 0.00 91 1007.0
20210412173328 50 254 2.0 4.0 0.00 0.00 0.00 91 1007.2
20210412173042 50 250 2.0 4.0 0.00 0.00 0.00 91 1007.2
20210412172858 50 215 2.0 7.0 0.00 0.00 0.00 91 1007.2
20210412172027 50 17 3.0 7.0 0.00 0.00 0.00 91 1007.2
20210412171314 51 208 3.0 7.0 0.00 0.00 0.00 91 1007.1
20210412170934 51 201 3.0 7.0 0.00 0.00 0.00 91 1007.0
20210412170651 51 189 2.0 7.0 0.00 0.00 0.00 91 1006.9
20210412165819 51 244 3.0 10.0 0.00 0.00 0.00 91 1006.9
20210412164828 51 321 2.0 9.0 0.00 0.00 0.00 91 1006.8
20210412164302 51 219 2.0 9.0 0.00 0.00 0.00 91 1006.8
20210412162949 51 328 1.0 6.0 0.00 0.00 0.00 93 1006.6
20210412162838 50 225 2.0 10.0 0.00 0.00 0.00 94 1006.4
20210412161848 50 181 4.0 10.0 0.00 0.00 0.00 94 1006.6
20210412161251 50 159 3.0 9.0 0.00 0.00 0.00 93 1006.6
20210412160253 50 207 2.0 6.0 0.00 0.00 0.00 93 1006.6
20210412160044 50 212 3.0 6.0 0.00 0.00 0.00 93 1006.5
20210412155832 50 192 3.0 7.0 0.00 0.00 0.00 93 1006.7
20210412155033 50 245 2.0 7.0 0.00 0.00 0.00 93 1006.7
20210412154243 50 266 2.0 5.0 0.00 0.00 0.00 93 1006.6
20210412153739 50 249 3.0 10.0 0.00 0.00 0.00 93 1006.7
20210412153250 50 254 3.0 10.0 0.00 0.00 0.00 94 1006.6
20210412153019 50 309 3.0 7.0 0.00 0.00 0.00 94 1006.6
20210412152821 50 213 2.0 6.0 0.00 0.00 0.00 95 1006.4
20210412151842 50 258 1.0 4.0 0.00 0.00 0.00 95 1006.4
20210412151242 50 251 2.0 6.0 0.00 0.00 0.00 95 1006.5
20210412150306 50 225 2.0 8.0 0.00 0.00 0.00 95 1006.4
20210412150041 50 303 2.0 8.0 0.00 0.00 0.00 95 1006.4
20210412145844 50 239 1.0 4.0 0.00 0.00 0.00 95 1006.2
20210412144908 50 268 1.0 3.0 0.00 0.00 0.00 96 1006.3
20210412144227 50 323 0.0 3.0 0.00 0.00 0.00 96 1006.1
20210412143312 49 239 1.0 6.0 0.00 0.00 0.00 95 1006.2
20210412143037 49 206 1.0 4.0 0.00 0.00 0.00 96 1006.1
20210412142723 49 206 1.0 4.0 0.00 0.00 0.00 95 1006.2
20210412141741 49 256 1.0 5.0 0.00 0.00 0.00 95 1006.1
20210412141224 49 205 2.0 7.0 0.00 0.00 0.00 96 1006.1
20210412140724 49 200 4.0 8.0 0.00 0.00 0.00 96 1006.0
20210412140242 49 214 3.0 8.0 0.00 0.00 0.00 95 1006.0
20210412140057 49 202 2.0 7.0 0.00 0.00 0.00 96 1005.9
20210412135751 49 242 2.0 7.0 0.00 0.00 0.00 95 1005.9
20210412134728 49 196 3.0 7.0 0.00 0.00 0.00 95 1005.8
20210412134218 49 190 4.0 7.0 0.00 0.00 0.00 95 1005.7
20210412133720 49 194 4.0 8.0 0.00 0.00 0.00 96 1005.7
20210412133232 49 198 4.0 8.0 0.00 0.00 0.00 95 1005.7
20210412132833 49 215 3.0 8.0 0.00 0.00 0.00 95 1005.8
20210412132457 50 194 2.0 7.0 0.00 0.00 0.00 96 1005.6
20210412131725 50 191 3.0 7.0 0.00 0.00 0.00 95 1005.6
20210412131215 49 213 3.0 7.0 0.00 0.00 0.00 95 1005.5
20210412130724 49 205 3.0 9.0 0.00 0.00 0.00 95 1005.4
20210412130216 49 213 4.0 9.0 0.00 0.00 0.00 95 1005.4
20210412125943 50 201 2.0 7.0 0.00 0.00 0.00 95 1005.1
20210412124723 50 201 1.0 5.0 0.00 0.00 0.00 95 1005.0
20210412124215 50 236 1.0 8.0 0.00 0.00 0.00 96 1004.8
20210412123705 50 226 1.0 8.0 0.00 0.00 0.00 95 1004.8
20210412123233 50 201 1.0 7.0 0.00 0.00 0.00 95 1004.7
20210412122832 50 216 2.0 8.0 0.00 0.00 0.00 95 1004.5
20210412121716 50 209 3.0 8.0 0.00 0.00 0.00 95 1004.5
20210412121207 50 215 3.0 9.0 0.00 0.00 0.00 95 1004.5
20210412120707 50 204 2.0 9.0 0.00 0.00 0.00 95 1004.2
20210412120218 50 261 1.0 7.0 0.00 0.00 0.00 95 1004.2
20210412115919 50 267 2.0 7.0 0.00 0.00 0.00 95 1004.2
20210412114919 50 210 2.0 6.0 0.00 0.00 0.00 95 1004.3
20210412114229 50 210 3.0 8.0 0.00 0.00 0.00 95 1004.2
20210412113708 50 175 3.0 9.0 0.00 0.00 0.00 95 1004.1
20210412113204 50 193 2.0 9.0 0.00 0.01 0.00 95 1004.2
20210412112841 50 213 2.0 8.0 0.00 0.01 0.00 95 1004.0
20210412112555 50 187 2.0 8.0 0.00 0.01 0.00 95 1004.0
20210412111704 50 201 2.0 8.0 0.00 0.01 0.00 95 1003.9
20210412111209 50 198 2.0 7.0 0.00 0.01 0.00 95 1003.8
20210412110705 50 321 2.0 8.0 0.00 0.01 0.00 95 1003.8
20210412110200 50 207 2.0 8.0 0.00 0.01 0.00 95 1003.6
20210412105940 51 251 3.0 9.0 0.00 0.01 0.00 95 1003.7
20210412105820 51 277 4.0 9.0 0.00 0.01 0.00 95 1003.7
20210412104716 51 240 4.0 11.0 0.00 0.01 0.00 95 1003.6
20210412104204 51 199 4.0 11.0 0.00 0.01 0.00 95 1003.6
20210412103703 51 355 3.0 10.0 0.00 0.01 0.00 95 1003.5
20210412103200 51 204 4.0 10.0 0.00 0.01 0.00 95 1003.6
20210412102944 51 201 5.0 11.0 0.00 0.01 0.00 95 1003.4
20210412102711 51 215 5.0 13.0 0.00 0.01 0.00 95 1003.3
20210412101656 51 207 5.0 13.0 0.00 0.01 0.00 95 1003.3
20210412101155 51 205 5.0 12.0 0.00 0.01 0.00 95 1003.2
20210412100704 51 221 5.0 10.0 0.00 0.01 0.00 95 1003.1
20210412100205 51 213 6.0 10.0 0.00 0.01 0.00 95 1003.1
20210412100041 51 232 6.0 10.0 0.00 0.01 0.00 95 1003.1
20210412095812 51 211 5.0 10.0 0.00 0.01 0.00 95 1003.0
20210412094647 51 199 5.0 10.0 0.00 0.02 0.00 95 1002.8
20210412094151 51 210 5.0 11.0 0.00 0.02 0.00 95 1002.9
20210412093649 51 207 5.0 11.0 0.00 0.02 0.00 96 1002.8
20210412093152 51 187 3.0 10.0 0.00 0.02 0.00 96 1002.7
20210412092523 52 248 4.0 10.0 0.00 0.05 0.00 96 1002.6
20210412091649 52 215 3.0 10.0 0.00 0.09 0.00 96 1002.5
20210412091153 52 210 3.0 9.0 0.00 0.11 0.00 96 1002.4
20210412090649 52 213 4.0 9.0 0.00 0.12 0.00 96 1002.5
20210412090244 52 218 4.0 11.0 0.00 0.12 0.00 96 1002.5
20210412090027 52 235 4.0 11.0 0.00 0.12 0.00 96 1002.3
20210412085650 52 207 5.0 11.0 0.00 0.12 0.00 96 1002.5
20210412084647 52 198 4.0 11.0 0.00 0.12 0.00 96 1002.5
20210412084153 52 219 4.0 10.0 0.00 0.12 0.00 97 1002.4
20210412083649 52 213 4.0 8.0 0.00 0.12 0.00 97 1002.3
20210412083218 52 199 2.0 8.0 0.00 0.13 0.00 97 1002.2
20210412082919 52 225 3.0 10.0 0.00 0.13 0.00 97 1002.0
20210412081650 52 263 4.0 8.0 0.00 0.13 0.00 97 1002.0
20210412081146 52 207 3.0 8.0 0.00 0.13 0.00 97 1002.0
20210412080646 52 204 3.0 12.0 0.00 0.13 0.00 97 1002.0
20210412075846 52 209 4.0 10.0 0.00 0.13 0.00 97 1002.0
20210412075435 52 210 4.0 10.0 0.00 0.13 0.00 97 1001.9
20210412074642 52 213 4.0 10.0 0.00 0.13 0.00 97 1001.8
20210412074147 52 192 4.0 8.0 0.00 0.13 0.00 97 1001.7
20210412073649 52 216 4.0 8.0 0.00 0.13 0.00 97 1001.5
20210412073155 52 209 3.0 8.0 0.00 0.13 0.00 97 1001.5
20210412072934 52 229 1.0 7.0 0.00 0.13 0.00 97 1001.5
20210412072738 52 244 2.0 9.0 0.00 0.13 0.00 97 1001.3
20210412071655 52 165 3.0 9.0 0.00 0.13 0.00 97 1001.4
20210412071143 53 194 4.0 9.0 0.00 0.13 0.00 97 1001.2
20210412070638 53 217 4.0 10.0 0.00 0.13 0.00 97 1001.1
20210412070144 53 204 3.0 10.0 0.00 0.13 0.00 97 1001.1
20210412065823 53 237 3.0 9.0 0.00 0.13 0.00 97 1001.1
20210412065529 53 270 4.0 8.0 0.00 0.13 0.00 97 1001.1
20210412064636 53 213 3.0 8.0 0.00 0.13 0.00 97 1001.2
20210412064139 53 219 3.0 8.0 0.00 0.13 0.00 97 1001.3
20210412063632 53 213 3.0 8.0 0.00 0.13 0.00 97 1001.3
20210412063134 53 213 3.0 7.0 0.00 0.13 0.00 97 1001.2
20210412061633 53 209 3.0 8.0 0.00 0.13 0.00 97 1000.9
20210412061138 53 223 1.0 8.0 0.00 0.13 0.00 96 1000.8
20210412060741 53 213 2.0 8.0 0.00 0.13 0.00 97 1000.8
20210412060132 53 206 2.0 8.0 0.00 0.13 0.00 97 1000.8
20210412055857 53 231 1.0 3.0 0.00 0.13 0.00 96 1000.8
20210412054634 53 224 3.0 10.0 0.00 0.13 0.00 96 1000.8
20210412054130 53 208 2.0 10.0 0.00 0.13 0.00 96 1000.7
20210412053631 53 171 2.0 7.0 0.00 0.13 0.00 96 1000.5
20210412053143 53 261 2.0 7.0 0.00 0.13 0.00 96 1000.3
20210412052804 53 247 1.0 3.0 0.00 0.13 0.00 96 1000.3
20210412051641 53 292 1.0 8.0 0.00 0.13 0.00 96 1000.5
20210412051131 53 269 2.0 8.0 0.00 0.13 0.00 96 1000.5
20210412050630 53 234 2.0 7.0 0.00 0.13 0.00 96 1000.4
20210412050254 53 229 2.0 9.0 0.00 0.13 0.00 96 1000.6
20210412045839 52 240 4.0 9.0 0.00 0.13 0.00 95 1000.8
20210412044631 53 266 5.0 10.0 0.00 0.13 0.00 95 1000.8
20210412044146 53 165 5.0 10.0 0.00 0.13 0.00 95 1001.3
20210412043421 53 275 3.0 10.0 0.00 0.13 0.00 95 1000.2
20210412043035 52 150 1.0 9.0 0.00 0.13 0.00 95 1001.1
20210412042619 52 283 0.0 3.0 0.00 0.13 0.00 95 1000.0
20210412041632 52 286 0.0 2.0 0.00 0.13 0.00 95 1000.1
20210412041132 52 286 0.0 2.0 0.00 0.13 0.00 95 1000.1
20210412040647 52 287 0.0 2.0 0.00 0.13 0.00 94 1000.0
20210412040132 53 323 0.0 4.0 0.00 0.13 0.00 94 1000.2
20210412035856 53 324 0.0 4.0 0.00 0.13 0.13 94 1000.1
20210412035437 52 267 0.0 3.0 0.00 0.13 0.13 94 1000.1
20210412034141 53 274 0.0 2.0 0.00 0.13 0.13 93 1000.1
20210412033631 53 290 0.0 2.0 0.00 0.13 0.13 93 1000.2
20210412033132 53 302 0.0 3.0 0.00 0.13 0.13 93 1000.1
20210412032858 53 302 0.0 3.0 0.00 0.13 0.13 92 1000.1
20210412032400 53 272 0.0 3.0 0.00 0.13 0.13 92 1000.1
20210412031141 54 288 0.0 2.0 0.00 0.13 0.13 90 1000.1
20210412030124 56 302 0.0 3.0 0.00 0.13 0.13 88 1000.0
20210412025848 56 322 1.0 5.0 0.00 0.13 0.13 86 1000.2
20210412025540 58 302 1.0 5.0 0.00 0.13 0.13 85 1000.0
20210412024646 60 331 1.0 4.0 0.00 0.13 0.13 84 999.9
20210412024118 61 279 0.0 1.0 0.00 0.13 0.13 85 999.7
20210412023142 63 224 0.0 0.0 0.00 0.13 0.13 81 999.5
20210412022703 65 223 0.0 0.0 0.00 0.13 0.13 86 999.3
20210412021616 65 223 0.0 0.0 0.00 0.13 0.13 86 999.2
20210412021114 65 223 0.0 0.0 0.00 0.13 0.13 86 999.2
20210412020624 65 223 0.0 0.0 0.00 0.13 0.13 85 999.2
20210412020105 65 223 0.0 0.0 0.00 0.13 0.13 85 999.2
20210412015759 65 223 0.0 0.0 0.00 0.13 0.13 85 999.2
20210412015319 66 223 0.0 0.0 0.00 0.13 0.13 85 999.1
20210412014621 66 223 0.0 0.0 0.00 0.13 0.13 84 999.3
20210412014102 66 223 0.0 0.0 0.00 0.13 0.13 84 999.2
20210412013612 66 223 0.0 0.0 0.00 0.13 0.13 85 999.3
20210412013251 66 223 0.0 0.0 0.00 0.13 0.13 85 999.4
20210412012456 66 223 0.0 0.0 0.00 0.13 0.13 84 999.4
20210412011555 66 223 0.0 0.0 0.00 0.13 0.13 84 999.3
20210412011113 66 223 0.0 0.0 0.00 0.13 0.13 84 999.1
20210412010059 65 223 0.0 0.0 0.00 0.13 0.13 85 999.1
20210412005906 65 225 0.0 0.0 0.00 0.13 0.13 85 999.1
20210412004559 65 225 0.0 0.0 0.00 0.13 0.13 84 999.1
20210412004054 65 225 0.0 0.0 0.00 0.13 0.13 84 998.9
20210412003550 65 225 0.0 0.0 0.00 0.13 0.13 85 998.7
20210412003220 65 225 0.0 0.0 0.00 0.13 0.13 85 998.5
20210412002924 65 225 0.0 0.0 0.00 0.13 0.13 84 998.4
20210412001541 65 225 0.0 0.0 0.00 0.13 0.13 84 998.3
20210412001058 65 225 0.0 0.0 0.00 0.13 0.13 83 998.3
20210412000633 65 225 0.0 0.0 0.00 0.13 0.13 82 998.2
20210412000045 65 225 0.0 0.0 0.00 0.13 0.13 81 998.2
20210411235906 65 225 0.0 0.0 0.00 0.13 0.13 80 998.1
20210411235428 65 225 0.0 0.0 0.00 0.13 0.13 80 998.2
20210411234535 65 225 0.0 0.0 0.00 0.13 0.13 79 998.4
20210411233531 66 225 0.0 0.0 0.00 0.13 0.13 79 998.2
20210411233145 66 225 0.0 0.0 0.00 0.13 0.13 79 998.2
20210411232636 66 225 0.0 0.0 0.00 0.13 0.13 79 998.2
20210411231050 67 225 0.0 0.0 0.00 0.13 0.13 76 998.1
20210411230610 68 225 0.0 0.0 0.00 0.13 0.13 76 998.1
20210411230057 68 225 0.0 0.0 0.00 0.13 0.13 73 998.1
20210411225224 69 225 0.0 0.0 0.00 0.13 0.13 71 998.1
20210411224527 69 225 0.0 0.0 0.00 0.13 0.13 71 998.2
20210411224036 69 225 0.0 0.0 0.00 0.13 0.13 70 998.3
20210411223527 70 225 0.0 0.0 0.00 0.13 0.13 70 998.3
20210411223250 70 225 0.0 0.0 0.00 0.13 0.13 69 998.4
20210411223026 70 225 0.0 0.0 0.00 0.13 0.13 69 998.4
20210411222432 71 225 0.0 0.0 0.00 0.13 0.13 69 998.5
20210411221524 71 225 0.0 0.0 0.00 0.13 0.13 71 998.6
20210411220620 71 213 0.0 0.0 0.00 0.13 0.13 73 998.4
20210411220319 72 213 0.0 0.0 0.00 0.13 0.13 69 998.2
20210411215932 72 213 0.0 2.0 0.00 0.13 0.13 69 998.0
20210411215346 72 236 1.0 4.0 0.00 0.13 0.13 69 998.2
20210411214534 72 344 1.0 4.0 0.00 0.13 0.13 67 998.0
20210411213154 73 232 1.0 4.0 0.00 0.13 0.13 67 998.1
20210411212919 74 338 1.0 4.0 0.00 0.13 0.13 63 998.3
20210411211516 74 340 1.0 3.0 0.00 0.13 0.13 64 998.0
20210411210028 74 123 1.0 5.0 0.00 0.13 0.13 63 998.1
20210411205324 74 319 0.0 0.0 0.00 0.13 0.13 65 998.0
20210411204516 75 324 0.0 1.0 0.00 0.13 0.13 63 997.9
20210411204025 75 306 0.0 1.0 0.00 0.13 0.13 64 997.8
20210411203603 76 248 0.0 2.0 0.00 0.13 0.13 63 997.6
20210411203424 77 244 1.0 3.0 0.00 0.13 0.13 62 997.5
20210411203038 78 244 1.0 4.0 0.00 0.13 0.13 59 997.6
20210411202438 79 240 2.0 6.0 0.00 0.13 0.13 57 997.5
20210411201000 79 159 1.0 7.0 0.00 0.13 0.13 54 997.6
20210411200512 78 166 2.0 8.0 0.00 0.13 0.13 59 997.5
20210411200037 78 119 2.0 8.0 0.00 0.13 0.13 53 997.6
20210411195231 79 168 2.0 7.0 0.00 0.13 0.13 57 997.5
20210411194459 78 138 2.0 9.0 0.00 0.13 0.13 56 997.5
20210411193955 78 113 2.0 9.0 0.00 0.13 0.13 55 997.6
20210411192943 77 132 2.0 7.0 0.00 0.13 0.13 59 997.8
20210411192447 76 146 2.0 7.0 0.00 0.13 0.13 58 997.7
20210411191456 75 125 1.0 9.0 0.00 0.13 0.13 59 997.8
20210411190139 69 327 1.0 6.0 0.00 0.13 0.13 81 998.2
20210411185944 68 348 1.0 6.0 0.00 0.13 0.13 82 998.4
20210411185209 68 355 1.0 5.0 0.00 0.13 0.13 82 998.5
20210411184449 68 355 1.0 4.0 0.00 0.13 0.13 85 998.6
20210411183951 67 346 1.0 5.0 0.00 0.13 0.13 83 998.9
20210411183745 67 355 1.0 5.0 0.00 0.13 0.13 83 998.7
20210411183321 68 333 1.0 3.0 0.00 0.13 0.13 83 998.7
20210411183059 68 342 0.0 4.0 0.00 0.13 0.13 85 998.8
20210411182421 67 355 1.0 5.0 0.00 0.13 0.13 86 998.5
20210411181441 67 350 1.0 5.0 0.00 0.13 0.13 86 998.5
20210411180938 67 344 0.0 4.0 0.00 0.13 0.13 85 998.6
20210411180443 67 350 0.0 0.0 0.00 0.13 0.13 86 998.6
20210411175948 67 355 0.0 0.0 0.00 0.13 0.13 87 998.7